Location: Proctor
(47.8934°N, 114.3048°W)
Time: 12:47:55
(UTC+00:00)

Envisat - Visible Passes

Search period start: 23 May 2024 00:00
Search period end: 02 June 2024 00:00
Orbit: 762 x 764 km, 98.3° (Epoch: 22 May)

Date Brightness Start Highest point End Pass type
(mag) Time Alt. Az. Time Alt. Az. Time Alt. Az.
23 May 5.1 09:55:35 10° NE 09:59:28 22° E 10:03:19 10° SE visible
24 May 3.3 10:56:22 10° NNE 11:01:27 72° ESE 11:06:31 10° S visible
25 May 4.4 10:19:18 10° NNE 10:23:56 34° E 10:28:32 10° SSE visible
26 May 5.4 09:42:59 10° NE 09:46:13 17° E 09:49:26 10° SE visible
27 May 3.6 10:43:19 10° NNE 10:48:20 56° E 10:53:18 10° S visible
28 May 4.8 10:06:27 10° NE 10:10:45 27° E 10:15:00 10° SSE visible
29 May 5.5 09:30:40 10° ENE 09:32:56 13° E 09:35:11 10° ESE visible
30 May 4.1 10:30:19 10° NNE 10:35:11 43° E 10:39:59 10° S visible
31 May 5.1 09:53:41 10° NE 09:57:30 21° E 10:01:18 10° SE visible
01 Jun 3.3 10:54:25 10° NNE 10:59:30 70° ESE 11:04:33 10° S visible
